Tracking 29606 objects as of 19-Sep-2024
HD Live streaming from Space Station
objects crossing your sky now

FORMOSAT 3E

Track FORMOSAT 3E now!
10-day predictions
FORMOSAT 3E is classified as:


NORAD ID: 29051
Int'l Code: 2006-011E
Perigee: 750.6 km
Apogee: 844.5 km
Inclination: 72.0 °
Period: 100.7 minutes
Semi major axis: 7168 km
RCS: 0.58 m2 (medium)
Launch date: April 15, 2006
Source: Taiwan (Republic of China) (ROC)
Launch site: AIR FORCE WESTERN TEST RANGE (AFWTR)
Your satellite tracking list
Your tracking list is empty




NASA's NSSDC Master Catalog

Two Line Element Set (TLE):
1 29051U 06011E   24262.18260863  .00001617  00000-0  62273-3 0  9993
2 29051  72.0045 164.9222 0065466 116.9014 243.8834 14.30395958964134
Source of the keplerian elements: AFSPC